This is the latest recevied weather packets stored in our database for station/object NC4M. If no packets are shown the sender has not sent any weather packets the latest 10 day(s).
| Time | Temp. | Humidity | Pressure | Rain* | Wind** | Luminosity | Snow |
|---|---|---|---|---|---|---|---|
| 1787617753 | 25° C | 73% | 1016.7 hPa | 0 mm | - | 14 W/m² | - |
| 1787617448 | 25° C | 74% | 1016.6 hPa | 0 mm | - | 17 W/m² | - |
| 1787617148 | 25° C | 73% | 1016.8 hPa | 0 mm | - | 19 W/m² | - |
| 1787616842 | 25.56° C | 72% | 1016.7 hPa | 0 mm | - | 24 W/m² | - |
| 1787616542 | 25.56° C | 72% | 1016.9 hPa | 0 mm | - | 28 W/m² | - |
| 1787616241 | 25.56° C | 71% | 1016.8 hPa | 0 mm | - | 38 W/m² | - |
| 1787615939 | 25.56° C | 70% | 1016.8 hPa | 0 mm | - | 42 W/m² | - |
| 1787615634 | 25.56° C | 71% | 1016.4 hPa | 0 mm | - | 49 W/m² | - |
| 1787615330 | 25.56° C | 70% | 1016.7 hPa | 0 mm | - | 51 W/m² | - |
| 1787615026 | 25.56° C | 71% | 1016.7 hPa | 0 mm | - | 44 W/m² | - |
| 1787614722 | 25.56° C | 70% | 1016.7 hPa | 0 mm | - | 41 W/m² | - |
| 1787614419 | 26.11° C | 71% | 1016.8 hPa | 0 mm | - | 44 W/m² | - |
| 1787614116 | 26.11° C | 69% | 1016.7 hPa | 0 mm | - | 45 W/m² | - |
| 1787613811 | 26.11° C | 68% | 1016.8 hPa | 0 mm | - | 52 W/m² | - |
| 1787613506 | 26.67° C | 67% | 1016.9 hPa | 0 mm | - | 61 W/m² | - |
| 1787613202 | 26.67° C | 67% | 1016.9 hPa | 0 mm | - | 75 W/m² | - |
| 1787612898 | 26.67° C | 67% | 1017 hPa | 0 mm | - | 97 W/m² | - |
| 1787612594 | 26.11° C | 70% | 1016.7 hPa | 0 mm | - | 105 W/m² | - |
| 1787612290 | 26.67° C | 69% | 1016.8 hPa | 0 mm | - | 82 W/m² | - |
| 1787611986 | 26.67° C | 68% | 1016.8 hPa | 0 mm | - | 67 W/m² | - |
| 1787611682 | 26.67° C | 65% | 1016.9 hPa | 0 mm | - | 78 W/m² | - |
| 1787611379 | 26.67° C | 66% | 1016.8 hPa | 0 mm | - | 73 W/m² | - |
| 1787611079 | 27.22° C | 65% | 1016.9 hPa | 0 mm | - | 106 W/m² | - |
| 1787610775 | 27.22° C | 63% | 1016.7 hPa | 0 mm | - | 92 W/m² | - |
| 1787610470 | 27.22° C | 62% | 1017 hPa | 0 mm | - | 95 W/m² | - |
* Rain latest hour (hover to see other rain measurements)
** Current wind speed in m/s (hover to see current wind gust speed)